#timestamp,LO_Frequency,Hit,StdDev 
1650229215.6,286046998.7,N
1650229235.5,286046998.7,N
1650229255.3,286047000.6,N
1650229275.1,286047000.6,N
1650229295.9,286047000.8,N
1650229315.7,286047000.7,N
1650229335.5,286046998.2,N
1650229355.4,286046998.4,N
1650229375.2,286046998.9,N
1650229395.0,286046998.6,N
1650229396.0,286046998.6,N
1650229415.8,286047000.9,N
1650229435.6,286047000.9,N
1650229455.5,286047001.2,N
1650229475.3,286046998.1,N
1650229495.1,286046998.7,N
1650229515.9,286047000.8,N
1650229535.7,286047000.0,N
1650229555.6,286046999.8,N
1650229575.4,286047001.7,N
1650229595.2,286047001.7,N
1650229615.1,286047000.2,N
1650229616.0,286047000.2,N
1650229635.8,286047001.9,N
1650229655.6,286047002.5,N
1650229675.5,286047004.3,Y
1650229695.3,286047003.8,P
1650229715.2,286047003.2,N
1650229735.9,286047001.7,N
1650229755.7,286047001.3,N
1650229775.6,286047002.7,N
1650229795.4,286047002.2,N
1650229815.2,286047001.9,N
1650229835.1,286047002.5,N
1650229836.0,286047002.5,N
1650229855.8,286047001.4,N
1650229875.7,286047001.8,N
1650229895.5,286047002.1,N
1650229915.3,286047002.3,N
1650229935.2,286047002.0,N
1650229955.0,286047001.8,N
1650229955.9,286047001.8,N
1650229975.8,286047004.0,Y
1650229995.6,286047000.4,P
1650230015.4,286047000.3,N
1650230035.3,286047000.1,N
1650230055.1,286047000.6,N
1650230075.8,286046999.3,N
1650230095.7,286046998.3,N
1650230115.5,286047001.1,N
1650230135.4,286047000.9,N
1650230155.2,286047000.3,N
1650230175.0,286047000.5,N
1650230175.9,286047000.5,N
1650230195.8,286046999.9,N
1650230215.6,286047002.4,N
1650230235.4,286047000.6,N
1650230255.3,286046999.6,N
1650230275.1,286046999.5,N
1650230295.9,286047000.4,N
1650230315.7,286047000.3,N
1650230335.5,286047001.6,N
1650230355.4,286047002.6,N
1650230375.2,286047002.1,N
1650230395.0,286047002.6,N
1650230395.9,286047002.6,N
1650230415.8,286047002.6,N
1650230435.6,286047002.5,N
1650230455.5,286047002.4,N
1650230475.3,286047000.4,N
1650230495.1,286047000.7,N
1650230515.9,286047004.3,Y
1650230535.7,286047002.1,P
1650230555.5,286047001.8,P
1650230575.4,286047001.5,N
1650230595.2,286047003.9,Y
1650230615.1,286046999.9,P
1650230616.0,286046999.9,N
1650230635.8,286046998.1,N
1650230655.6,286046998.6,N
1650230675.5,286047000.2,N
1650230695.3,286047003.4,N
1650230715.2,286047008.7,Y
1650230735.9,286047009.2,P
1650230755.7,286047004.8,N
1650230775.6,286047007.6,N
1650230795.4,286047007.3,N
1650230815.2,286047004.2,N
1650230835.1,286047003.6,N
1650230836.0,286047003.6,N
1650230855.8,286047006.0,N
1650230875.7,286047003.9,N
1650230895.5,286047005.8,N
1650230915.3,286047005.9,N
1650230935.2,286047004.1,N
1650230955.0,286047004.4,N
1650230955.9,286047004.4,N
1650230975.8,286047002.0,N
1650230995.6,286047002.5,N
1650231015.4,286047004.0,N
1650231035.3,286047005.9,N
1650231055.1,286047003.8,N
1650231075.8,286047004.1,N
1650231095.7,286047002.1,N
1650231115.5,286047004.2,N
1650231135.4,286047004.1,N
1650231155.2,286047001.4,N
1650231175.0,286047004.0,N
1650231175.9,286047004.0,N
1650231195.8,286047003.9,N
1650231215.6,286047002.5,N
1650231235.4,286047001.0,N
1650231255.3,286047000.9,N
1650231275.1,286047000.8,N
1650231295.9,286047000.5,N
1650231315.7,286046999.7,N
1650231335.5,286046999.7,N
1650231355.4,286047001.0,N
1650231375.2,286047000.8,N
1650231395.0,286047000.5,N
1650231396.0,286047000.5,N
1650231415.8,286046998.2,N
1650231435.6,286047002.8,N
1650231455.5,286047002.0,N
1650231475.3,286046999.7,N
1650231495.1,286047001.5,N
1650231515.9,286047005.6,Y
1650231535.7,286046999.8,P
1650231555.6,286047001.7,N
1650231575.4,286047004.0,P
1650231595.2,286047002.0,N
1650231615.1,286047002.3,N
1650231616.0,286047002.3,N
1650231635.8,286047001.9,N
1650231655.6,286047002.1,N
1650231675.5,286047004.2,Y
1650231695.3,286046999.0,P
1650231715.2,286046997.4,N
1650231735.9,286046998.4,N
1650231755.7,286046999.2,N
1650231775.6,286047000.8,N
1650231795.4,286047000.6,N
1650231815.2,286046998.8,N
1650231835.1,286046999.0,N
1650231836.0,286046999.0,N
1650231855.8,286046996.5,N
1650231875.7,286046997.6,N
1650231895.5,286046997.0,N
1650231915.3,286046997.4,N
1650231935.2,286046997.7,N
1650231955.0,286046997.7,N
1650231955.9,286046997.7,N
1650231975.7,286046997.6,N
1650231995.6,286046997.1,N
1650232015.4,286046997.9,N
1650232035.3,286046998.0,N
1650232055.1,286046997.7,N
1650232075.8,286046997.6,N
1650232095.7,286046996.5,N
1650232115.5,286046998.3,N
1650232135.3,286046996.5,N
1650232155.2,286046996.8,N
1650232175.0,286046998.5,N
1650232175.9,286046998.5,N
1650232195.8,286046999.0,N
1650232215.6,286046996.6,N
1650232235.4,286046999.4,N
1650232255.3,286046999.2,N
1650232275.1,286047000.4,N
1650232295.9,286047004.1,Y
1650232315.7,286047007.0,P
1650232335.5,286047008.8,N
1650232355.4,286047006.8,N
1650232375.2,286047003.8,N
1650232395.0,286047004.0,N
1650232395.9,286047004.0,N
1650232415.8,286047004.1,N
1650232435.6,286047006.6,N
1650232455.5,286047009.1,Y
1650232475.3,286047001.4,P
1650232495.1,286047002.3,N
1650232515.9,286046999.8,N
1650232535.7,286047000.1,N
1650232555.5,286047002.8,N
1650232575.4,286047001.3,N
1650232595.2,286047002.9,N
1650232615.1,286047005.2,Y
1650232616.0,286047005.2,P
1650232635.8,286047012.3,P
1650232655.6,286047012.2,N
1650232675.5,286047010.8,N
1650232695.3,286047009.0,N
1650232715.1,286047004.7,N
1650232735.9,286047003.5,N
1650232755.7,286047003.5,N
1650232775.6,286047006.8,N
1650232795.4,286047005.0,N
